This demonstration page uses our WeatherBlox Daily Observations layout. Learn more.

36.19886, -115.1175

Hourly Observations for January 4, 2020

Temp ( °F °C ) Dew Point ( °F °C ) Humidity (%) Winds ( mph kmh ) Pressure ( in mb ) Visibility ( mi km ) Precip ( " mm )
12:53 am 00:53 Clear 42 5.6 31 -0.6 65 65 NNW 6 9 30.38 1029 10 16.0934 0 0
1:53 am 01:53 Clear 42 5.6 31 -0.6 65 65 WNW 5 7 30.37 1029 10 16.0934 0 0
2:53 am 02:53 Clear 40 4.4 31 -0.6 70 70 NNW 6 9 30.36 1028 10 16.0934 0 0
3:53 am 03:53 Clear 40 4.4 30 -1.1 68 68 W 5 7 30.35 1028 10 16.0934 0 0
4:53 am 04:53 Clear 39 3.9 30 -1.1 70 70 NW 3 6 30.36 1028 10 16.0934 0 0
5:53 am 05:53 Clear 38 3.3 29 -1.7 70 70 Calm 30.37 1029 10 16.0934 0 0
6:53 am 06:53 Sunny 38 3.3 29 -1.7 70 70 W 3 6 30.38 1029 10 16.0934 0 0
7:53 am 07:53 Sunny 43 6.1 31 -0.6 63 63 Calm 30.39 1029 10 16.0934 0 0
8:53 am 08:53 Sunny 48 8.9 30 -1.1 50 50 Calm 30.4 1030 10 16.0934 0 0
9:53 am 09:53 Sunny 51 10.6 30 -1.1 44 44 Calm 30.41 1030 10 16.0934 0 0
10:53 am 10:53 Sunny 52 11.1 30 -1.1 43 43 E 5 7 30.39 1029 10 16.0934 0 0
11:53 am 11:53 Sunny 54 12.2 29 -1.7 38 38 Calm 30.38 1029 10 16.0934 0 0
12:53 pm 12:53 Sunny 57 13.9 29 -1.7 34 34 Calm 30.35 1028 10 16.0934 0 0
1:53 pm 13:53 Sunny 57 13.9 30 -1.1 36 36 SE 5 7 30.33 1027 10 16.0934 0 0
2:53 pm 14:53 Sunny 58 14.4 28 -2.2 32 32 ENE 7 11 30.36 1028 10 16.0934 0 0
3:53 pm 15:53 Sunny 56 13.3 31 -0.6 39 39 ENE 3 6 30.38 1029 10 16.0934 0 0
4:53 pm 16:53 Clear 55 12.8 30 -1.1 38 38 Calm 30.4 1029 10 16.0934 0 0
5:53 pm 17:53 Clear 52 11.1 31 -0.6 45 45 WSW 5 7 30.41 1030 10 16.0934 0 0
6:53 pm 18:53 Clear 50 10 31 -0.6 48 48 W 6 9 30.41 1030 10 16.0934 0 0
7:53 pm 19:53 Clear 48 8.9 32 0 54 54 NNW 5 7 30.41 1030 10 16.0934 0 0
8:53 pm 20:53 Clear 46 7.8 32 0 58 58 Calm 30.42 1030 10 16.0934 0 0
9:53 pm 21:53 Clear 44 6.7 32 0 63 63 W 5 7 30.43 1030 10 16.0934 0 0
10:53 pm 22:53 Clear 42 5.6 32 0 68 68 WNW 5 7 30.42 1030 10 16.0934 0 0
11:53 pm 23:53 Clear 43 6.1 31 -0.6 63 63 W 7 11 30.4 1029 10 16.0934 0 0

Powered by AerisWeather